Regional Weather Roundup
Issued by NWS

Home | Current Version | Previous Version | Text Only | Print | Product List | Glossary On
Versions: 1 2 3 4 5 6 7 8 9 10 11 12 13 14 15 16 17 18 19 20 21 22 23 24 25 26 27 28 29 30 31 32 33 34 35 36 37 38 39 40 41 42 43 44 45 46 47 48 49 50
000
ASUS43 KOAX 270202
RWRNE

WEATHER ROUNDUP FOR NEBRASKA
NATIONAL WEATHER SERVICE OMAHA NE
900 PM CDT THU MAY 26 2016

NOTES: SATELLITE DATA IS BEING USED TO AUGMENT CLOUD COVER ABOVE
       12000 FEET.
       "FAIR" INDICATES FEW OR NO CLOUDS BELOW 12,000 FEET WITH NO
       SIGNIFICANT WEATHER AND/OR OBSTRUCTIONS TO VISIBILITY.

  * THESE STATIONS DO NOT REPORT WEATHER SUCH AS RAIN...SNOW OR FOG.

NEZ001>004-019>022-054>056-270300-
NEBRASKA PANHANDLE

CITY           SKY/WX    TMP DP  RH WIND       PRES   REMARKS
SCOTTSBLUFF    CLOUDY    60  42  51 W9        29.84F
ALLIANCE       CLOUDY    61  38  42 N10       29.82R
CHADRON        CLOUDY    55  48  77 SW7       29.80F
SIDNEY         CLOUDY    57  43  59 NW13      29.83S
$$

NEZ057>060-069>072-079>082-270300-
SOUTHWEST NEBRASKA

CITY           SKY/WX    TMP DP  RH WIND       PRES   REMARKS
NORTH PLATTE   LGT RAIN  62  54  74 E9        29.78R
IMPERIAL       LGT RAIN  58  50  75 E24G31    29.78R
LEXINGTON      CLOUDY    65  57  75 E9        29.71F
MCCOOK         CLOUDY    65  58  78 E10       29.68R
$$

NEZ005>010-023>029-035>040-094-270300-
NORTH CENTRAL NEBRASKA

CITY           SKY/WX    TMP DP  RH WIND       PRES   REMARKS
VALENTINE      TSTM      61  52  72 NE13      29.78R
AINSWORTH      PTCLDY    66  55  67 E12       29.77S
BROKEN BOW     CLOUDY    68  55  63 E17G25    29.75R
ORD            CLOUDY    66  58  75 SE12      29.75R
$$

NEZ041-046>049-061>064-073>077-083>087-270300-
SOUTH CENTRAL NEBRASKA

CITY           SKY/WX    TMP DP  RH WIND       PRES   REMARKS
GRAND ISLAND   CLOUDY    63  56  78 E7        29.76R
HASTINGS       CLOUDY    61  56  83 E15       29.70F
KEARNEY *      CLOUDY    63  54  72 E12       29.71F
YORK           CLOUDY    61  57  88 SE22G28   29.75R
$$

NEZ011>018-030>034-042>045-270300-
NORTHEAST NEBRASKA

CITY           SKY/WX    TMP DP  RH WIND       PRES   REMARKS
NORFOLK        CLOUDY    63  58  83 E3        29.75F
ALBION         CLOUDY    62  57  83 CALM      29.77R
BLAIR          RAIN      62  59  91 SE20G25   29.82F
FREMONT        LGT RAIN  62  60  94 SE22G29   29.71F
TEKAMAH        CLOUDY    65  56  72 SE23      29.80F
$$

NEZ050>053-065>068-078-088>093-270300-
SOUTHEAST NEBRASKA

CITY           SKY/WX    TMP DP  RH WIND       PRES   REMARKS
LINCOLN        CLOUDY    63  59  87 E18       29.78F
OMAHA EPPLEY   RAIN      63  58  83 SE13      29.87R
FALLS CITY     TSTM      63  63 100 NE15      29.87F
PLATTSMOUTH    LGT RAIN  64  60  87 E13       29.88F
$$

NEZ044-045-051>053-067-270300-
OMAHA AREA

CITY           SKY/WX    TMP DP  RH WIND       PRES   REMARKS
OMAHA EPPLEY   RAIN      63  58  83 SE13      29.87R
BLAIR          RAIN      62  59  91 SE20G25   29.82F
FREMONT        LGT RAIN  62  60  94 SE22G29   29.71F
PLATTSMOUTH    LGT RAIN  64  60  87 E13       29.88F
$$




USA.gov is the U.S. government's official web portal to all federal, state and local government web resources and services.